Regional Weather Roundup
Issued by NWS

Home | Current Version | Previous Version | Text Only | Print | Product List | Glossary Off
Versions: 1 2 3 4 5 6 7 8 9 10 11 12 13 14 15 16 17 18 19 20 21 22 23 24 25 26 27 28 29 30 31 32 33 34 35 36 37 38 39 40 41 42 43 44 45 46 47 48 49 50

000
ASUS43 KLMK 200510
RWRKY
KENTUCKY REGIONAL WEATHER ROUNDUP
NATIONAL WEATHER SERVICE LOUISVILLE KY
100 AM EDT SUN MAY 20 2018

NOTE "FAIR" INDICATES FEW OR NO CLOUDS BELOW 12,000 FEET
WITH NO SIGNIFICANT WEATHER AND/OR OBSTRUCTIONS TO VISIBILITY.

KYZ001>023-026-027-061>063-070>075-200600-
WESTERN AND SOUTH CENTRAL KENTUCKY

CITY           SKY/WX    TMP DP  RH WIND       PRES   REMARKS
PADUCAH        FAIR      68  64  87 NW12G28   30.07R
HENDERSON      NOT AVBL
OWENSBORO      FAIR      72  66  81 W7        30.03R
HOPKINSVILLE   FAIR      66  66 100 SW6       30.02R
BOWLING GREEN  FAIR      72  66  81 CALM      30.02R
GLASGOW        FAIR      70  65  84 CALM      30.04R
$$

KYZ024-025-028>034-038-045-046-053-200600-
NORTH CENTRAL KENTUCKY

CITY           SKY/WX    TMP DP  RH WIND       PRES   REMARKS
LOUISVILLE/SDF MOCLDY    73  65  75 CALM      30.00R
LOUISVILLE/LOU FAIR      70  67  90 CALM      30.01R
FORT KNOX      FAIR      65  65 100 CALM      30.02R
$$

KYZ035>037-039>044-047>052-055>060-089>105-200600-
NORTHEAST KENTUCKY

CITY           SKY/WX    TMP DP  RH WIND       PRES   REMARKS
LEXINGTON      FAIR      68  64  87 SE5       30.03S
COVINGTON      FAIR      68  65  90 S3        30.00F
FRANKFORT      FAIR      67  63  87 CALM      30.01S
$$

KYZ054-064>069-076>088-106>120-200600-
SOUTHEAST KENTUCKY

CITY           SKY/WX    TMP DP  RH WIND       PRES   REMARKS
JACKSON        FAIR      66  64  93 CALM      30.07F
LONDON         FAIR      66  65  96 CALM      30.07F
SOMERSET       FAIR      64  64 100 CALM      30.06S FOG
MIDDLESBORO    CLOUDY    66  66 100 CALM      30.11F
MONTICELLO     FAIR      64  64 100 VRB5      30.04F FOG
$$





USA.gov is the U.S. government's official web portal to all federal, state and local government web resources and services.